Timestamp[UTC];2m Lufttemperatur [degC] (tas);Stations-Luftdruck [Pa] (ps);relative Luftfeuchtigkeit [%] (hurs);spezifische Luftfeuchtigkeit [kg/kg] (huss);Niederschlagsmenge [mm] (pr);Windgeschwindigkeit in 2m [m/s] (sfcWind);Windrichtung [deg];maximale Windgeschwindigkeit [m/s] (wsgsmax);u-Windkomponente [m/s] (uas);v-Windkomponente [m/s] (vas);Sonneneinstrahlung [W/m2];Blitzrate [n];Blitzentfernung [km];Bodenfeuchte in 5cm Tiefe [vol%];Bodenfeuchte in 15cm Tiefe [vol%];Bodenfeuchte in 30cm Tiefe [vol%];Bodenfeuchte in 60cm Tiefe [vol%];Bodentemperatur in 5cm Tiefe [degC];Bodentemperatur in 15cm Tiefe [degC];Bodentemperatur in 30cm Tiefe [degC];Bodentemperatur in 60cm Tiefe [degC];Matrixpotential in 30cm Tiefe [kPa];Bodenfeuchte aus CRNS [vol%] (mrso);Neutronen Anzahl [N/h]
2021-06-01 00:00:00;12,2;101215;63;0,0055;0,0;0,9;106;1,4;-0,25;0,84;0;0;0;23,3;27,7;26,5;24,7;15,4;17,8;18,3;14,6;-8,0;19,7;1320
2021-06-01 01:00:00;11,6;101212;64;0,0054;0,0;1,0;107;1,4;-0,29;0,9;0;0;0;23,3;27,6;26,5;24,7;14,7;17,1;18,1;14,7;-8,0;19,8;1459
2021-06-01 02:00:00;10,0;101200;73;0,0055;0,0;0,7;118;1,1;-0,26;0,59;0;0;0;23,3;27,6;26,5;24,7;14,0;16,5;17,8;14,8;-8,0;19,8;1440
2021-06-01 03:00:00;8,2;101212;85;0,0057;0,0;0,5;120;0,9;-0,2;0,37;5;0;0;23,3;27,6;26,4;24,7;13,3;15,9;17,5;14,8;-8,0;19,5;1405
2021-06-01 04:00:00;10,5;101180;77;0,006;0,0;1,2;97;1,9;-0,15;1,17;78;0;0;23,3;27,5;26,4;24,6;12,9;15,3;17,2;14,8;-8,0;19,6;1356
2021-06-01 05:00:00;13,7;101148;68;0,0065;0,0;1,5;80;2,5;0,28;1,46;229;0;0;23,3;27,5;26,4;24,6;13,1;14,9;16,9;14,9;-8,0;19,3;1398
2021-06-01 06:00:00;16,4;101140;58;0,0067;0,0;2,2;91;3,7;-0,14;2,1;384;0;0;23,3;27,1;26,3;24,6;14,5;14,9;16,7;14,9;-8,0;19,4;1442
2021-06-01 07:00:00;17,8;101115;52;0,0065;0,0;2,0;108;3,7;-0,57;1,86;535;0;0;23,3;27,5;26,3;24,6;17,0;15,5;16,4;14,9;-8,0;19,5;1387
2021-06-01 08:00:00;19,1;101110;50;0,0068;0,0;2,1;84;4,0;0,21;2,09;668;0;0;23,3;27,4;26,3;24,6;19,9;16,6;16,3;14,9;-8,0;19,7;1437
2021-06-01 09:00:00;20,6;101080;44;0,0066;0,0;2,5;94;4,8;-0,3;2,36;772;0;0;23,2;27,4;26,2;24,5;22,9;18,1;16,2;14,9;-7,9;19,5;1438
2021-06-01 10:00:00;21,8;101027;38;0,0061;0,0;2,4;103;5,2;-0,56;2,31;839;0;0;23,1;26,9;26,2;24,5;25,7;19,7;16,4;14,9;-7,9;19,4;1405
2021-06-01 11:00:00;22,4;100995;37;0,0062;0,0;2,8;88;5,5;0,09;2,79;857;0;0;23,0;26,4;26,2;24,5;28,1;21,5;16,6;14,9;-7,9;19,1;1365
2021-06-01 12:00:00;22,9;100948;37;0,0064;0,0;3,6;83;7,6;0,39;3,56;832;0;0;22,9;25,6;26,1;24,5;29,9;23,0;17,0;14,9;-7,9;18,9;1403
2021-06-01 13:00:00;23,6;100890;34;0,006;0,0;3,8;87;7,2;0,19;3,84;776;0;0;22,8;25,5;26,1;24,5;31,0;24,3;17,5;14,9;-8,0;18,7;1447
2021-06-01 14:00:00;23,6;100850;31;0,0056;0,0;3,4;74;7,2;0,86;3,22;591;0;0;22,6;25,4;26,0;24,4;30,9;25,3;18,0;14,9;-8,0;18,9;1550
2021-06-01 15:00:00;24,0;100803;27;0,005;0,0;3,9;78;7,0;0,77;3,81;501;0;0;22,5;25,3;26,0;24,4;30,7;25,7;18,5;14,9;-8,0;18,7;1508
2021-06-01 16:00:00;23,6;100765;32;0,0058;0,0;2,7;76;5,4;0,64;2,62;377;0;0;22,4;25,2;26,0;24,4;29,2;25,8;19,0;14,9;-8,0;18,7;1496
2021-06-01 17:00:00;23,4;100760;35;0,0063;0,0;2,6;68;5,4;0,96;2,47;247;0;0;22,3;25,1;25,9;24,4;27,7;25,4;19,4;14,9;-8,0;18,6;1442
2021-06-01 18:00:00;22,6;100743;37;0,0062;0,0;2,4;71;4,9;0,75;2,25;133;0;0;22,2;25,0;25,9;24,4;25,2;24,7;19,7;15,0;-8,0;18,4;1424
2021-06-01 19:00:00;20,8;100740;44;0,0066;0,0;1,3;76;2,8;0,34;1,25;42;0;0;22,2;25,0;25,9;24,3;23,2;23,7;19,9;15,0;-8,0;18,4;1406
2021-06-01 20:00:00;17,8;100775;58;0,0073;0,0;0,5;56;1,1;0,27;0,35;2;0;0;22,2;24,9;25,8;24,3;21,4;22,7;20,0;15,1;-8,0;18,2;1498
2021-06-01 21:00:00;15,7;100785;68;0,0074;0,0;0,6;96;1,2;-0,07;0,55;0;0;0;22,2;24,9;25,8;24,3;20,0;21,7;19,9;15,2;-8,0;18,2;1504
2021-06-01 22:00:00;14,9;100790;72;0,0076;0,0;0,6;88;1,6;-0,02;0,61;0;0;0;22,2;24,8;25,8;24,3;18,9;20,8;19,8;15,3;-8,0;18,2;1472
2021-06-01 23:00:00;14,6;100785;74;0,0076;0,0;0,8;103;1,3;-0,2;0,75;0;0;0;22,2;24,8;25,7;24,3;18,0;20,0;19,7;15,4;-8,0;18,2;1527
2021-06-02 00:00:00;14,1;100792;78;0,0078;0,0;0,4;55;1,2;0,16;0,26;0;0;0;22,2;24,8;25,7;24,2;17,4;19,3;19,4;15,5;-8,0;18,0;1479
2021-06-02 01:00:00;14,8;100770;76;0,0079;0,0;0,6;138;1,3;-0,26;0,42;0;0;0;22,2;24,7;25,7;24,2;17,0;18,8;19,2;15,5;-8,0;18,0;1369
2021-06-02 02:00:00;12,9;100752;85;0,0079;0,0;0,3;88;0,7;0,06;0,16;0;0;0;22,2;24,7;25,6;24,2;16,4;18,3;19,0;15,6;-8,0;17,8;1562
2021-06-02 03:00:00;11,5;100742;91;0,0077;0,0;0,3;128;0,6;-0,06;0,12;3;0;0;22,2;24,7;25,6;24,2;15,6;17,7;18,7;15,7;-8,0;18,0;1439
2021-06-02 04:00:00;11,0;100735;95;0,0078;0,0;0,3;185;0,6;-0,04;0,13;28;0;0;22,2;24,7;25,6;24,2;15,2;17,2;18,5;15,7;-8,0;17,9;1430
2021-06-02 05:00:00;11,6;100752;96;0,0081;0,0;0,3;98;0,5;-0,04;0,31;47;0;0;22,2;24,7;25,6;24,1;15,0;16,8;18,2;15,7;-8,0;18,0;1516
2021-06-02 06:00:00;14,4;100752;90;0,0091;0,0;0,8;78;1,5;0,14;0,77;244;0;0;22,2;24,6;25,5;24,1;15,7;16,6;18,0;15,8;-8,0;17,9;1469
2021-06-02 07:00:00;18,1;100730;70;0,0091;0,0;1,4;100;2,3;-0,25;1,4;371;0;0;22,2;24,6;25,5;24,1;17,5;16,8;17,7;15,8;-8,0;17,7;1513
2021-06-02 08:00:00;20,5;100732;60;0,0089;0,0;1,4;122;2,6;-0,69;1,17;488;0;0;22,2;24,6;25,5;24,1;20,2;17,6;17,6;15,8;-8,0;17,5;1460
2021-06-02 09:00:00;22,4;100738;50;0,0085;0,0;2,0;115;3,5;-0,73;1,77;748;0;0;22,2;24,6;25,4;24,1;23,1;18,9;17,5;15,8;-8,0;17,5;1481
2021-06-02 10:00:00;23,8;100720;44;0,008;0,0;2,3;90;4,4;0,02;2,22;830;0;0;22,1;24,5;25,4;24,1;26,6;20,6;17,5;15,8;-8,0;17,4;1410
2021-06-02 11:00:00;24,5;100722;40;0,0076;0,0;2,1;115;4,5;-0,89;1,89;848;0;0;22,0;24,4;25,4;24,0;29,3;22,4;17,7;15,8;-8,0;17,3;1514
2021-06-02 12:00:00;25,1;100710;37;0,0073;0,0;1,6;106;3,7;-0,41;1,42;824;0;0;21,9;24,4;25,3;24,0;31,3;24,1;18,1;15,7;-8,0;17,4;1430
2021-06-02 13:00:00;25,9;100705;36;0,0073;0,0;1,3;167;3,3;-0,08;0,94;784;0;0;21,8;24,3;25,3;24,0;32,6;25,6;18,5;15,8;-8,0;17,3;1548
2021-06-02 14:00:00;26,6;100688;36;0,0077;0,0;1,1;74;3,4;0,23;0,89;664;0;0;21,7;24,2;25,3;24,0;33,1;26,7;19,0;15,7;-8,0;17,1;1422
2021-06-02 15:00:00;26,6;100665;37;0,0079;0,0;1,4;56;3,5;0,75;1,18;540;0;0;21,6;24,1;25,2;24,0;32,9;27,4;19,6;15,7;-8,0;17,2;1526
2021-06-02 16:00:00;26,5;100632;37;0,0079;0,0;1,7;74;3,4;0,46;1,59;395;0;0;21,4;24,0;25,2;23,9;31,9;27,6;20,1;15,7;-8,0;17,1;1471
2021-06-02 17:00:00;26,3;100652;36;0,0077;0,0;1,7;74;3,5;0,46;1,66;250;0;0;21,4;24,0;25,2;23,9;30,1;27,3;20,5;15,8;-8,0;16,9;1465
2021-06-02 18:00:00;25,2;100688;40;0,008;0,0;1,9;100;3,1;-0,31;1,87;124;0;0;21,3;23,9;25,2;23,9;27,7;26,7;20,9;15,8;-8,0;16,9;1525
2021-06-02 19:00:00;22,6;100722;48;0,0081;0,0;1,3;100;1,9;-0,25;1,29;28;0;0;21,2;23,8;25,1;23,9;25,5;25,7;21,2;15,9;-8,0;16,9;1506
2021-06-02 20:00:00;18,9;100788;64;0,0086;0,0;0,5;124;0,9;-0,28;0,42;0;0;0;21,2;23,8;25,1;23,9;23,7;24,6;21,3;16,0;-8,0;17,0;1480
2021-06-02 21:00:00;16,3;100835;77;0,0088;0,0;0,4;118;0,8;-0,18;0,32;0;0;0;21,2;23,8;25,1;23,9;22,1;23,6;21,3;16,0;-8,0;17,0;1543
2021-06-02 22:00:00;18,3;100878;66;0,0086;0,0;1,3;94;2,1;-0,12;1,32;0;0;0;21,2;23,7;25,0;23,8;21,2;22,7;21,2;16,1;-8,0;17,1;1506
2021-06-02 23:00:00;18,5;100905;58;0,0076;0,0;1,3;100;2,2;-0,2;1,31;0;0;0;21,2;23,7;25,0;23,8;20,4;22,0;21,0;16,2;-8,0;17,0;1479
2021-06-03 00:00:00;17,9;100928;60;0,0075;0,0;0,8;151;1,8;-0,26;0,48;0;0;0;21,2;23,7;25,0;23,8;19,8;21,3;20,8;16,3;-8,0;17,0;1491
2021-06-03 01:00:00;15,9;100920;72;0,008;0,0;0,5;106;1,0;-0,1;0,5;0;0;0;21,2;23,6;25,0;23,8;19,2;20,7;20,6;16,4;-8,0;16,9;1445
2021-06-03 02:00:00;16,1;100925;75;0,0084;0,0;0,7;97;1,4;-0,03;0,66;0;0;0;21,2;23,6;24,9;23,8;18,9;20,3;20,4;16,5;-8,0;17,0;1481
2021-06-03 03:00:00;15,8;100938;74;0,0083;0,0;0,5;131;1,1;-0,2;0,4;1;0;0;21,2;23,6;24,9;23,8;18,5;19,8;20,2;16,5;-8,0;16,8;1459
2021-06-03 04:00:00;17,0;100990;72;0,0085;0,0;0,7;102;1,3;-0,15;0,65;24;0;0;21,2;23,6;24,9;23,7;18,4;19,5;19,9;16,6;-8,0;16,9;1501
2021-06-03 05:00:00;18,1;101030;74;0,0094;0,0;0,6;123;1,1;-0,34;0,49;111;0;0;21,2;23,6;24,8;23,7;18,9;19,3;19,7;16,6;-8,0;16,9;1464
2021-06-03 06:00:00;20,0;101062;70;0,0102;0,0;0,9;171;2,9;-0,8;0,06;248;0;0;21,2;23,6;24,8;23,7;20,0;19,4;19,5;16,7;-8,0;16,9;1451
2021-06-03 07:00:00;20,6;101110;69;0,0103;0,0;1,0;210;3,4;-0,88;-0,53;226;0;0;21,2;23,5;24,8;23,7;21,1;19,8;19,4;16,7;-8,0;16,8;1391
2021-06-03 08:00:00;20,9;101120;70;0,0107;0,0;1,0;195;2,7;-0,9;-0,19;283;0;0;21,2;23,5;24,8;23,7;22,0;20,3;19,3;16,7;-8,0;17,0;1405
2021-06-03 09:00:00;22,7;101128;67;0,0114;0,0;1,1;214;3,1;-0,87;-0,65;492;0;0;21,2;23,5;24,8;23,7;23,8;20,9;19,2;16,7;-8,0;16,9;1334
2021-06-03 10:00:00;24,4;101148;62;0,0117;0,0;1,6;199;4,4;-1,51;-0,53;758;0;0;21,1;23,4;24,7;23,6;26,9;22,0;19,3;16,7;-8,0;17,1;1407
2021-06-03 11:00:00;24,4;101162;64;0,0122;0,0;1,5;180;4,0;-1,38;-0,04;521;0;0;21,1;23,4;24,7;23,6;28,3;23,5;19,4;16,7;-8,0;17,2;1391
2021-06-03 12:00:00;22,8;101160;76;0,013;0,39;1,1;208;3,8;-0,96;-0,54;298;31;16;21,0;23,4;24,7;23,6;27,2;24,2;19,6;16,7;-8,0;17,2;1424
2021-06-03 13:00:00;24,6;101110;69;0,0131;0,02;1,2;193;3,6;-1,12;-0,29;674;13;11;21,0;23,3;24,7;23,6;28,6;24,4;19,9;16,7;-8,0;17,2;1394
2021-06-03 14:00:00;24,8;101102;61;0,0118;0,0;1,4;230;3,9;-0,9;-1,01;476;0;0;21,0;23,3;24,6;23,6;29,4;25,2;20,2;16,7;-8,0;17,3;1437
2021-06-03 15:00:00;24,4;101095;63;0,0119;0,0;1,2;239;3,3;-0,63;-1,01;312;0;0;20,9;23,2;24,6;23,6;28,3;25,5;20,5;16,7;-8,0;17,5;1389
2021-06-03 16:00:00;24,5;101087;64;0,0122;0,0;1,4;248;3,5;-0,48;-1,25;336;10;10;20,9;23,2;24,6;23,5;28,4;25,5;20,7;16,7;-8,0;17,6;1381
2021-06-03 17:00:00;24,6;101088;63;0,012;0,0;1,2;229;3,7;-0,77;-0,92;194;25;10;20,9;23,1;24,6;23,5;27,7;25,5;21,0;16,8;-8,0;17,8;1423
2021-06-03 18:00:00;22,8;101128;68;0,0117;0,0;0,8;249;2,3;-0,31;-0,76;42;62;10;20,8;23,1;24,6;23,5;25,8;25,2;21,2;16,8;-8,0;17,9;1451
2021-06-03 19:00:00;21,1;101190;80;0,0123;1,32;1,0;261;2,7;0,15;-0,84;10;29;10;20,8;23,1;24,5;23,5;24,6;24,5;21,3;16,9;-8,0;18,0;1343
2021-06-03 20:00:00;19,0;101265;95;0,0129;0,05;0,5;214;1,1;0,29;0,29;0;34;11;20,8;23,1;24,5;23,5;23,2;23,8;21,4;16,9;-8,0;17,9;1404
2021-06-03 21:00:00;18,3;101298;98;0,0127;0,0;0,5;232;0,8;0,22;-0,09;0;12;6;20,8;23,0;24,5;23,5;22,3;23,2;21,3;16,9;-8,0;18,0;1339
2021-06-03 22:00:00;17,7;101292;99;0,0124;0,02;0,4;197;0,8;-0,05;0,11;0;0;0;20,9;23,0;24,5;23,5;21,3;22,5;21,3;17,0;-8,0;17,8;1374
2021-06-03 23:00:00;17,5;101270;99;0,0122;0,0;0,3;78;0,6;0,04;0,24;0;0;0;20,9;23,0;24,4;23,4;20,6;21,8;21,2;17,1;-7,9;17,8;1418
2021-06-04 00:00:00;17,2;101255;100;0,0121;0,0;0,6;85;1,0;0,04;0,6;0;0;0;21,0;23,0;24,4;23,4;20,2;21,3;21,0;17,1;-7,9;17,9;1376
2021-06-04 01:00:00;16,4;101252;100;0,0115;0,02;0,4;269;0,7;0,12;-0,16;0;0;0;21,0;23,0;24,4;23,4;19,6;20,9;20,8;17,2;-7,9;18,0;1369
2021-06-04 02:00:00;16,5;101270;100;0,0115;0,0;0,3;220;0,6;0,14;-0,02;0;0;0;21,0;23,0;24,4;23,4;19,2;20,4;20,6;17,2;-7,9;18,0;1315
2021-06-04 03:00:00;16,1;101298;100;0,0113;0,02;0,3;143;0,5;0,04;-0,01;5;0;0;21,1;23,1;24,4;23,4;18,8;20,1;20,4;17,2;-8,0;18,0;1319
2021-06-04 04:00:00;16,5;101330;100;0,0115;0,0;0,5;326;1,0;0,38;-0,25;53;0;0;21,1;23,1;24,4;23,4;18,7;19,7;20,2;17,3;-7,9;18,0;1339
2021-06-04 05:00:00;17,5;101338;100;0,0123;0,02;0,4;231;0,9;-0,02;-0,09;188;0;0;21,1;23,1;24,3;23,4;19,3;19,6;20,0;17,3;-7,9;17,9;1382
2021-06-04 06:00:00;18,8;101357;99;0,0132;0,0;0,4;326;1,1;0,3;-0,19;234;0;0;21,1;23,1;24,3;23,3;20,1;19,7;19,8;17,3;-7,9;18,0;1338
2021-06-04 07:00:00;20,5;101370;91;0,0135;0,0;0,6;126;1,8;0,62;0,09;454;0;0;21,1;23,1;24,3;23,3;21,7;20,1;19,7;17,3;-7,9;18,3;1364
2021-06-04 08:00:00;21,2;101368;83;0,0128;0,0;0,7;106;1,7;0,42;0,13;430;0;0;21,1;23,1;24,3;23,3;23,5;20,8;19,6;17,3;-7,9;18,1;1347
2021-06-04 09:00:00;21,6;101370;80;0,0128;0,0;0,7;173;1,7;0,37;-0,04;401;0;0;21,1;23,1;24,3;23,3;24,4;21,6;19,6;17,3;-7,9;18,1;1360
2021-06-04 10:00:00;23,4;101352;71;0,0125;0,0;0,9;233;2,3;0,25;0,25;782;0;0;21,1;23,1;24,3;23,3;26,7;22,4;19,7;17,3;-7,9;18,0;1380
2021-06-04 11:00:00;24,2;101328;66;0,0122;0,0;1,1;116;2,7;0,75;0,43;800;0;0;21,1;23,1;24,2;23,3;29,4;23,8;19,8;17,3;-7,9;18,1;1336
2021-06-04 12:00:00;25,0;101265;59;0,0116;0,0;1,0;117;2,5;0,64;0,48;814;0;0;21,0;23,0;24,2;23,3;31,7;25,4;20,1;17,3;-7,9;18,1;1374
2021-06-04 13:00:00;25,6;101212;57;0,0116;0,0;0,9;311;2,4;0,56;-0,6;750;0;0;21,0;23,0;24,2;23,2;33,1;26,8;20,4;17,3;-7,9;18,2;1391
2021-06-04 14:00:00;25,8;101170;55;0,0113;0,0;1,1;122;3,1;0,63;0,52;615;0;0;20,9;23,0;24,2;23,2;33,5;27,9;20,9;17,3;-7,9;18,2;1449
2021-06-04 15:00:00;25,7;101115;54;0,0109;0,0;1,4;81;3,8;0,18;1,33;479;0;0;20,8;22,9;24,2;23,2;33,2;28,5;21,4;17,3;-7,9;18,1;1396
2021-06-04 16:00:00;25,2;101113;57;0,0113;0,0;1,6;80;3,5;0,24;1,55;236;0;0;20,7;22,9;24,1;23,2;31,6;28,5;21,8;17,3;-7,9;18,0;1409
2021-06-04 17:00:00;24,6;101130;60;0,0116;0,0;1,1;69;2,2;0,24;0,99;122;0;0;20,7;22,8;24,1;23,2;29,6;28,0;22,2;17,3;-8,0;17,8;1357
2021-06-04 18:00:00;23,8;101122;68;0,0124;0,0;0,5;184;1,1;0,26;0,23;84;0;0;20,6;22,8;24,1;23,2;28,0;27,3;22,5;17,4;-8,0;17,9;1318
2021-06-04 19:00:00;22,7;101110;74;0,0126;0,0;0,3;206;0,5;0,16;-0,06;13;0;0;20,6;22,7;24,1;23,2;26,5;26,5;22,7;17,4;-8,0;18,0;1403
2021-06-04 20:00:00;21,6;101168;76;0,0121;0,0;0,9;184;3,1;-0,79;-0,22;0;0;0;20,6;22,7;24,1;23,1;25,3;25,8;22,7;17,5;-8,0;18,0;1434
2021-06-04 21:00:00;19,5;101193;86;0,012;0,0;1,1;256;2,9;-0,3;-1,08;0;2;12;20,5;22,7;24,1;23,1;24,0;25,0;22,7;17,6;-8,0;18,0;1424
2021-06-04 22:00:00;18,6;101152;90;0,0119;0,13;0,4;243;1,1;0,29;-0,21;0;0;0;20,5;22,6;24,0;23,1;23,2;24,2;22,6;17,6;-8,0;17,9;1356
2021-06-04 23:00:00;18,1;101130;95;0,0122;0,14;0,4;168;0,8;-0,07;-0,09;0;0;0;20,5;22,6;24,0;23,1;22,5;23,6;22,5;17,7;-8,0;17,9;1410
2021-06-05 00:00:00;17,9;101137;97;0,0123;0,02;0,3;231;0,8;-0,21;-0,24;0;0;0;20,5;22,6;24,0;23,1;21,8;23,0;22,3;17,8;-8,0;17,8;1339
2021-06-05 01:00:00;17,8;101138;98;0,0124;0,0;0,4;110;0,8;0,03;0,11;0;4;6;20,5;22,6;24,0;23,1;21,4;22,5;22,1;17,9;-7,9;17,6;1381
2021-06-05 02:00:00;17,6;101132;99;0,0123;0,0;0,4;182;0,9;-0,13;-0,04;0;3;14;20,5;22,6;24,0;23,1;21,0;22,1;21,9;17,9;-8,0;17,5;1402
2021-06-05 03:00:00;17,2;101125;99;0,0121;0,02;0,5;246;1,8;-0,22;-0,48;6;3;22;20,5;22,6;24,0;23,1;20,6;21,7;21,7;18,0;-7,9;17,5;1371
2021-06-05 04:00:00;17,3;101102;100;0,0122;0,0;0,7;254;1,9;-0,18;-0,7;27;0;0;20,5;22,5;23,9;23,0;20,4;21,3;21,5;18,0;-7,9;17,5;1422
2021-06-05 05:00:00;17,5;101110;100;0,0124;0,0;0,6;248;1,5;-0,23;-0,6;31;0;0;20,5;22,5;23,9;23,0;20,4;21,1;21,3;18,1;-8,0;17,3;1360
2021-06-05 06:00:00;17,9;101125;99;0,0125;0,0;1,1;263;2,7;-0,12;-1,06;56;0;0;20,5;22,5;23,9;23,0;20,5;20,9;21,1;18,1;-7,9;17,1;1346
2021-06-05 07:00:00;17,7;101175;99;0,0124;0,0;1,3;282;2,8;0,21;-1,21;180;0;0;20,5;22,5;23,9;23,0;20,5;20,8;21,0;18,1;-7,9;17,0;1387
2021-06-05 08:00:00;18,8;101182;95;0,0128;0,0;1,4;265;3,7;-0,11;-1,41;318;0;0;20,5;22,5;23,9;23,0;22,0;21,0;20,8;18,1;-7,9;17,1;1360
2021-06-05 09:00:00;19,8;101172;90;0,0128;0,0;1,5;257;3,4;-0,31;-1,43;360;0;0;20,5;22,5;23,9;23,0;23,4;21,5;20,7;18,1;-7,9;17,2;1405
2021-06-05 10:00:00;20,5;101190;86;0,0128;0,0;1,7;270;3,9;0,01;-1,66;429;0;0;20,5;22,5;23,8;23,0;24,7;22,1;20,6;18,1;-7,9;17,1;1391
2021-06-05 11:00:00;21,4;101180;82;0,0129;0,0;2,1;266;4,6;-0,13;-2,08;633;0;0;20,5;22,5;23,8;23,0;26,6;23,0;20,7;18,1;-7,9;17,0;1389
2021-06-05 12:00:00;20,3;101195;83;0,0123;0,0;2,4;283;5,3;0,49;-2,2;362;0;0;20,5;22,4;23,8;22,9;27,5;24,0;20,8;18,1;-7,9;17,2;1445
2021-06-05 13:00:00;20,8;101177;82;0,0125;0,0;2,4;300;5,7;1,22;-2,07;661;0;0;20,5;22,4;23,8;22,9;27,7;24,5;20,9;18,1;-7,9;17,0;1451
2021-06-05 14:00:00;20,4;101205;82;0,0122;0,0;2,3;296;5,8;0,99;-1,99;394;0;0;20,4;22,4;23,8;22,9;28,2;25,0;21,1;18,1;-7,9;17,0;1424
2021-06-05 15:00:00;18,9;101230;87;0,0117;0,0;2,6;291;5,6;0,99;-2,44;254;0;0;20,4;22,4;23,7;22,9;27,0;25,2;21,3;18,1;-7,9;17,0;1374
2021-06-05 16:00:00;18,3;101272;88;0,0115;0,0;1,9;284;4,3;0,48;-1,87;137;0;0;20,3;22,3;23,7;22,9;25,3;24,9;21,5;18,1;-7,9;17,0;1507
2021-06-05 17:00:00;18,7;101288;84;0,0113;0,0;2,0;282;4,5;0,42;-1,94;104;0;0;20,3;22,3;23,7;22,9;24,4;24,3;21,7;18,1;-7,9;17,0;1416
2021-06-05 18:00:00;17,7;101315;86;0,0107;0,0;2,2;302;5,1;1,14;-1,81;74;0;0;20,3;22,3;23,7;22,9;23,4;23,8;21,8;18,1;-7,9;17,0;1401
2021-06-05 19:00:00;16,9;101348;88;0,0104;0,0;1,6;299;4,4;0,81;-1,4;6;0;0;20,2;22,3;23,7;22,9;22,4;23,3;21,8;18,1;-7,9;16,9;1346
2021-06-05 20:00:00;15,9;101438;92;0,0102;0,0;1,7;296;3,7;0,71;-1,49;0;0;0;20,2;22,2;23,7;22,8;21,5;22,6;21,7;18,1;-7,9;16,8;1363
2021-06-05 21:00:00;15,5;101478;93;0,0101;0,0;1,8;283;4,1;0,42;-1,74;0;0;0;20,2;22,2;23,7;22,8;20,8;22,1;21,6;18,1;-7,9;16,7;1433
2021-06-05 22:00:00;15,0;101485;95;0,01;0,0;1,8;281;4,1;0,37;-1,72;0;0;0;20,2;22,2;23,6;22,8;20,2;21,6;21,5;18,2;-7,9;16,8;1377
2021-06-05 23:00:00;14,4;101490;98;0,0099;0,0;1,7;270;3,7;0,0;-1,74;0;0;0;20,2;22,2;23,6;22,8;19,6;21,1;21,3;18,2;-7,9;16,9;1310
2021-06-06 00:00:00;14,0;101492;99;0,0098;0,0;1,5;281;3,6;0,3;-1,45;0;0;0;20,2;22,2;23,6;22,8;19,0;20,6;21,1;18,2;-7,9;16,9;1420
2021-06-06 01:00:00;13,9;101500;98;0,0096;0,0;1,5;288;3,8;0,46;-1,4;0;0;0;20,2;22,1;23,6;22,8;18,5;20,2;20,9;18,2;-7,9;17,0;1351
2021-06-06 02:00:00;13,8;101485;97;0,0095;0,0;1,3;289;3,5;0,41;-1,2;0;0;0;20,2;22,1;23,6;22,8;18,1;19,7;20,7;18,2;-7,9;17,2;1431
2021-06-06 03:00:00;13,7;101488;99;0,0095;0,0;1,2;279;2,8;0,2;-1,17;1;0;0;20,2;22,1;23,6;22,8;17,9;19,4;20,5;18,2;-7,9;17,4;1362
2021-06-06 04:00:00;14,0;101488;97;0,0096;0,0;1,1;284;2,6;0,27;-1,06;20;0;0;20,2;22,1;23,6;22,8;17,7;19,1;20,3;18,2;-7,9;17,2;1374
2021-06-06 05:00:00;14,4;101490;96;0,0097;0,0;1,3;286;3,2;0,37;-1,24;57;0;0;20,2;22,1;23,5;22,7;17,9;18,9;20,1;18,2;-7,9;17,4;1375
2021-06-06 06:00:00;14,7;101508;95;0,0098;0,0;1,4;286;3,4;0,38;-1,32;74;0;0;20,2;22,1;23,5;22,7;18,0;18,8;19,9;18,2;-7,9;17,4;1357
2021-06-06 07:00:00;15,2;101533;94;0,0099;0,0;1,2;284;2,8;0,32;-1,17;106;0;0;20,2;22,1;23,5;22,7;18,4;18,8;19,8;18,2;-7,9;17,4;1441
2021-06-06 08:00:00;15,0;101550;94;0,0099;0,0;1,5;292;3,7;0,59;-1,42;90;0;0;20,2;22,1;23,5;22,7;18,6;18,9;19,6;18,2;-7,9;17,4;1362
2021-06-06 09:00:00;15,5;101570;94;0,0102;0,0;1,4;298;3,1;0,64;-1,18;183;0;0;20,2;22,1;23,5;22,7;18,9;18,9;19,5;18,2;-7,9;17,3;1344
2021-06-06 10:00:00;16,2;101590;91;0,0103;0,0;1,5;291;3,7;0,54;-1,38;164;0;0;20,2;22,1;23,5;22,7;19,6;19,1;19,4;18,1;-7,9;17,4;1336
2021-06-06 11:00:00;16,8;101575;90;0,0105;0,0;1,5;285;3,4;0,38;-1,44;284;0;0;20,2;22,0;23,5;22,7;20,2;19,4;19,3;18,1;-7,9;17,4;1382
2021-06-06 12:00:00;17,2;101548;86;0,0104;0,0;1,4;308;3,2;0,89;-1,12;163;0;0;20,1;22,0;23,5;22,7;20,9;19,7;19,3;18,0;-7,9;17,3;1388
2021-06-06 13:00:00;17,3;101545;86;0,0104;0,0;1,2;308;3,0;0,77;-0,95;190;0;0;20,1;22,0;23,4;22,7;20,9;20,0;19,3;18,0;-7,9;17,2;1326
2021-06-06 14:00:00;17,5;101550;85;0,0104;0,0;1,5;331;3,2;1,32;-0,73;173;0;0;20,1;22,0;23,4;22,7;21,2;20,2;19,3;18,0;-7,9;17,1;1331
2021-06-06 15:00:00;17,6;101547;85;0,0105;0,0;1,4;325;3,3;1,16;-0,79;150;0;0;20,1;22,0;23,4;22,6;21,2;20,3;19,4;17,9;-7,9;17,1;1437
2021-06-06 16:00:00;17,4;101535;85;0,0104;0,0;1,5;329;3,5;1,25;-0,74;121;0;0;20,1;22,0;23,4;22,6;20,9;20,4;19,4;17,9;-7,9;17,1;1408
2021-06-06 17:00:00;17,3;101527;85;0,0104;0,0;1,2;327;2,8;1,0;-0,64;90;0;0;20,1;21,9;23,4;22,6;20,7;20,3;19,4;17,9;-7,9;17,1;1388
2021-06-06 18:00:00;17,0;101548;86;0,0102;0,0;1,1;328;3,0;0,97;-0,56;32;0;0;20,0;21,9;23,4;22,6;20,2;20,2;19,5;17,9;-7,9;17,1;1377
2021-06-06 19:00:00;16,4;101583;87;0,01;0,0;1,1;326;2,4;0,88;-0,58;8;0;0;20,0;21,9;23,4;22,6;19,5;20,0;19,5;17,8;-7,9;16,9;1374
2021-06-06 20:00:00;15,9;101610;89;0,0099;0,0;1,0;329;2,4;0,84;-0,49;0;0;0;20,0;21,9;23,3;22,6;18,9;19,7;19,4;17,8;-7,9;16,8;1379
2021-06-06 21:00:00;15,6;101610;90;0,0098;0,0;1,0;324;2,6;0,86;-0,6;0;0;0;20,0;21,9;23,3;22,6;18,5;19,3;19,4;17,8;-7,9;16,8;1400
2021-06-06 22:00:00;15,4;101612;91;0,0098;0,0;0,9;324;2,6;0,76;-0,54;0;0;0;20,0;21,9;23,3;22,6;18,2;19,0;19,3;17,7;-7,9;16,6;1367
2021-06-06 23:00:00;14,9;101630;90;0,0094;0,0;0,8;308;2,3;0,5;-0,62;0;0;0;20,0;21,9;23,3;22,6;17,9;18,8;19,2;17,7;-7,9;16,5;1352
2021-06-07 00:00:00;14,6;101610;91;0,0092;0,0;0,7;323;1,9;0,57;-0,42;0;0;0;20,0;21,9;23,3;22,6;17,5;18,5;19,1;17,7;-7,9;16,5;1470
2021-06-07 01:00:00;14,4;101598;92;0,0092;0,0;1,0;327;2,4;0,86;-0,55;0;0;0;20,0;21,8;23,3;22,6;17,2;18,3;19,0;17,7;-8,4;16,4;1377
2021-06-07 02:00:00;13,9;101590;92;0,009;0,0;0,8;328;2,0;0,7;-0,42;0;0;0;20,0;21,8;23,3;22,6;16,9;18,0;18,9;17,7;-9,5;16,3;1381
2021-06-07 03:00:00;13,0;101605;96;0,0088;0,0;0,6;318;1,4;0,42;-0,35;4;0;0;20,0;21,8;23,3;22,5;16,5;17,8;18,8;17,6;-9,9;16,3;1351
2021-06-07 04:00:00;12,0;101605;98;0,0085;0,0;0,5;317;1,3;0,37;-0,31;63;0;0;20,0;21,8;23,3;22,5;16,0;17,5;18,6;17,6;-10,0;16,2;1363
2021-06-07 05:00:00;13,4;101602;97;0,0091;0,0;0,8;320;2,2;0,65;-0,53;160;0;0;20,0;21,8;23,3;22,5;16,3;17,2;18,5;17,6;-10,1;16,3;1371
2021-06-07 06:00:00;15,1;101608;90;0,0094;0,0;1,0;314;2,8;0,68;-0,67;344;0;0;20,0;21,8;23,2;22,5;17,0;17,2;18,4;17,6;-10,2;16,4;1463
2021-06-07 07:00:00;14,6;101642;84;0,0086;0,0;1,0;312;2,5;0,66;-0,7;174;0;0;20,0;21,8;23,2;22,5;18,0;17,6;18,3;17,5;-10,2;16,3;1470
2021-06-07 08:00:00;15,0;101660;85;0,0089;0,0;0,7;323;2,1;0,59;-0,43;176;0;0;20,0;21,8;23,2;22,5;18,6;17,9;18,2;17,5;-10,2;16,2;1375
2021-06-07 09:00:00;15,5;101667;84;0,0091;0,0;0,9;319;2,3;0,68;-0,57;249;0;0;20,0;21,8;23,2;22,5;19,2;18,2;18,1;17,5;-10,3;16,0;1421
2021-06-07 10:00:00;16,4;101667;77;0,0088;0,0;1,0;315;2,8;0,7;-0,69;384;0;0;20,0;21,8;23,2;22,5;20,5;18,6;18,1;17,4;-10,3;16,0;1396
2021-06-07 11:00:00;18,6;101630;68;0,0089;0,0;1,2;332;3,3;1,02;-0,5;660;0;0;20,0;21,8;23,2;22,5;23,0;19,4;18,2;17,4;-10,3;15,9;1413
2021-06-07 12:00:00;19,8;101590;60;0,0085;0,0;1,3;52;4,0;0,63;0,87;558;0;0;20,0;21,8;23,2;22,5;25,6;20,8;18,3;17,4;-10,4;15,7;1422
2021-06-07 13:00:00;20,2;101548;57;0,0083;0,0;1,6;79;4,4;0,29;1,59;550;0;0;19,9;21,7;23,2;22,5;26,6;22,0;18,4;17,3;-10,4;15,9;1358
2021-06-07 14:00:00;20,4;101540;60;0,0089;0,0;1,0;143;3,1;0,36;0,78;400;0;0;19,9;21,7;23,2;22,4;27,3;22,9;18,7;17,3;-10,4;15,8;1375
2021-06-07 15:00:00;20,2;101505;62;0,009;0,0;0,9;166;2,9;0,62;-0,19;325;0;0;19,8;21,7;23,1;22,4;26,7;23,4;19,1;17,3;-10,4;15,8;1465
2021-06-07 16:00:00;20,0;101502;59;0,0085;0,0;1,0;319;2,7;0,72;-0,62;233;0;0;19,8;21,7;23,1;22,4;26,1;23,6;19,4;17,2;-10,4;15,7;1380
2021-06-07 17:00:00;19,8;101510;59;0,0084;0,0;0,7;314;1,8;0,5;-0,5;160;0;0;19,7;21,7;23,1;22,4;25,1;23,5;19,7;17,2;-10,4;15,6;1367
2021-06-07 18:00:00;19,4;101502;58;0,008;0,0;0,6;252;1,6;0,28;-0,12;95;0;0;19,7;21,6;23,1;22,4;24,0;23,2;19,9;17,2;-10,4;15,6;1432
2021-06-07 19:00:00;18,9;101517;57;0,0076;0,0;0,6;61;1,4;0,26;0,55;53;0;0;19,7;21,6;23,1;22,4;22,6;22,7;20,0;17,2;-10,4;15,6;1487
2021-06-07 20:00:00;16,8;101535;66;0,0078;0,0;0,2;206;0,5;0,17;0,08;2;0;0;19,6;21,6;23,1;22,4;21,0;22,0;20,1;17,3;-10,5;15,8;1472
2021-06-07 21:00:00;14,2;101548;82;0,0081;0,0;0,2;238;0,5;0,12;-0,16;0;0;0;19,6;21,6;23,1;22,4;19,5;21,2;20,2;17,3;-10,5;15,8;1405
2021-06-07 22:00:00;12,7;101575;88;0,0079;0,0;0,3;308;1,0;0,18;-0,27;0;0;0;19,6;21,5;23,1;22,4;18,4;20,4;20,1;17,3;-10,5;15,8;1446
2021-06-07 23:00:00;12,0;101580;89;0,0077;0,0;0,4;249;0,8;-0,11;-0,35;0;0;0;19,6;21,5;23,0;22,4;17,5;19,6;20,0;17,4;-10,6;15,8;1466
2021-06-08 00:00:00;11,9;101568;88;0,0075;0,0;0,4;244;0,9;-0,18;-0,38;0;0;0;19,6;21,5;23,0;22,4;16,7;19,0;19,8;17,4;-10,6;15,8;1390
2021-06-08 01:00:00;11,3;101562;90;0,0074;0,0;0,3;192;0,6;-0,05;-0,11;0;0;0;19,6;21,5;23,0;22,3;16,0;18,4;19,6;17,4;-10,6;15,8;1437
2021-06-08 02:00:00;10,5;101580;92;0,0072;0,0;0,3;222;0,6;-0,13;-0,11;0;0;0;19,6;21,5;23,0;22,3;15,4;17,8;19,4;17,4;-10,6;15,5;1426
2021-06-08 03:00:00;10,0;101612;95;0,0071;0,0;0,3;225;0,6;-0,02;-0,0;4;0;0;19,6;21,5;23,0;22,3;14,9;17,3;19,1;17,5;-10,7;15,4;1408
2021-06-08 04:00:00;9,9;101613;98;0,0073;0,0;0,2;161;0,5;0,03;0,18;36;0;0;19,6;21,5;23,0;22,3;14,6;16,8;18,9;17,5;-10,7;15,5;1399
2021-06-08 05:00:00;12,4;101570;98;0,0086;0,0;0,5;292;1,2;0,22;-0,4;188;0;0;19,6;21,5;23,0;22,3;14,9;16,5;18,7;17,5;-10,7;15,5;1401
2021-06-08 06:00:00;14,6;101595;85;0,0086;0,0;0,6;56;1,4;0,28;0,52;193;0;0;19,6;21,5;23,0;22,3;15,9;16,5;18,4;17,5;-10,7;15,3;1454
2021-06-08 07:00:00;15,5;101615;83;0,0089;0,0;0,6;320;1,5;0,4;-0,35;274;0;0;19,6;21,4;23,0;22,3;17,6;16,9;18,2;17,4;-10,8;15,3;1366
2021-06-08 08:00:00;17,6;101615;76;0,0094;0,0;0,8;268;2,1;0,42;-0,18;446;0;0;19,6;21,4;23,0;22,3;19,8;17,6;18,1;17,4;-10,8;15,4;1358